STARLINK-3451, 51749

Orbit data source: Space-Track

STARLINK-3451, 51749 is a payload satellite owned by SpaceX/Seattle (US) in LEO that was launched on Mon, 21 Feb 2022 UTC via an FALCON 9 launch vehicle from the Air Force Eastern Test Range (AFETR). Payload-class satellites include a variety of spacecraft equipped with specific instruments for various scientific and technological missions. These include communications satellites like Starlink; space stations such as the ISS; scientific satellites like the Hubble; Earth observation satellites from companies like Planet Labs, Umbra, and HawkEye 360; GPS; miniature CubeSats for education and research; and military/defense satellites.

Loading next visibility...
Identifier
51749, 2022-016AM
Orbit
LEO
Country
Flag of USUS
Related business
Manufacturer
SpaceX/Seattle
Mission
Operational Commercial Communications
Bus & Motor
STARLINK, Unknown motor
Mass
297 kg wet, ~275 kg dry
Launch date (UTC)
2022-02-21 (4 years ago)
Launch vehicle
FALCON 9
Launch site
Air Force Eastern Test Range (AFETR)
Object type
Payload
Rocket body
Debris
Shape & HBR
Box + 1 Pan, 10.1 m
Radar Cross Section
13.562 m², Large (>1 m²)

Expand to show TLE details & history
Last TLE update: 2 days ago

TLE from 2 days ago
0 STARLINK-3451
1 51749U 22016AM  26171.40889713 -.00000236  00000-0  32326-5 0  9997
2 51749  53.1585 218.0628 0001033  83.6506 276.4603 15.08832924239067
Epoch: 2026-06-20T09:48Z
TLE epoch observation values (Epoch: 2026-06-20T09:48:48.712Z)
Latitude
Longitude
162.23589°
Altitude
540.576 km
Speed
7.593 km/s
True Right ascension
14h 32m 15s
True Declination
0° 00' 00"
Sunlit
Object was in full shadow at epoch
Visualization orbit readout
Latitude
Unknown
Longitude
Unknown
Altitude
Unknown
Speed
Unknown
Apparent Right ascension
Unknown
Apparent Declination
Unknown
Sunlit
N/A
Visualization observer readout
Local Sidereal Time
21:33:14
Azimuth
Unknown
Elevation
Unknown
Doppler factor
Unknown
Orbital elements
Apogee altitude
540.734 km
Perigee altitude
539.305 km
Semi-major axis
6,918.156 km
Eccentricity
0.0001
Inclination
53.1585°
RAAN
218.0628°
Arg. of periapsis
83.6506°
True anomaly
276.44854°
Mean anomaly
276.4603°
Eccentric anomaly
276.45442°
Mean motion
3.77188 °/min
Orbital period
95.44 mins
BSTAR
0.0000032326
Loading maneuver chart data...
Computing Atmospheric mass density...
Loading historical data...
Loading historical data...
Loading historical data...
Loading historical data...
Loading historical data...
Loading historical data...
Loading historical data...

Documentation

Showing up to 5 results
|